• In Belgien
  • Länderverzeichnis
  • Für 7 Tage
  • Wassertemperatur
  • Satellitenkarten
  • Wetterkarte
  • Widgets
  • user-avatar
    Anmelden

    Stündliche Wetter Darwin

    Heute, 24 Januar, Mittwoch

    Zeit Temperatur Niederschläge Wind Luftdruck Luftfeuchtigkeit
    00:00 +29°C° 0,2 mm 6 m/S 751 mmHg 88%
    01:00 +29°C° 0,5 mm 6 m/S 751 mmHg 88%
    02:00 +29°C° 0,5 mm 6 m/S 751 mmHg 89%
    03:00 +29°C° 0 mm 6 m/S 750 mmHg 89%
    04:00 +29°C° 0,7 mm 6 m/S 750 mmHg 89%
    05:00 +29°C° 0,7 mm 6 m/S 750 mmHg 89%
    06:00 +29°C° 0,7 mm 5 m/S 750 mmHg 90%
    07:00 +30°C° 0,8 mm 5 m/S 750 mmHg 87%
    08:00 +30°C° 0,8 mm 5 m/S 751 mmHg 84%
    09:00 +32°C° 0 mm 4 m/S 751 mmHg 80%
    10:00 +33°C° 0,5 mm 4 m/S 751 mmHg 78%
    11:00 +33°C° 0,5 mm 5 m/S 750 mmHg 76%
    12:00 +34°C° 0,5 mm 5 m/S 750 mmHg 74%
    13:00 +34°C° 0,6 mm 6 m/S 749 mmHg 74%
    14:00 +33°C° 0,6 mm 7 m/S 749 mmHg 75%
    15:00 +33°C° 0,6 mm 7 m/S 749 mmHg 75%
    16:00 +33°C° 0,4 mm 7 m/S 749 mmHg 77%
    17:00 +32°C° 0,4 mm 7 m/S 749 mmHg 79%
    18:00 +32°C° 0,4 mm 7 m/S 749 mmHg 81%
    19:00 +30°C° 0,6 mm 7 m/S 749 mmHg 82%
    20:00 +30°C° 0,6 mm 7 m/S 750 mmHg 84%
    21:00 +29°C° 0,6 mm 7 m/S 750 mmHg 85%
    22:00 +29°C° 0,6 mm 7 m/S 750 mmHg 85%
    23:00 +29°C° 0,6 mm 7 m/S 750 mmHg 85%

    Morgen, 25 Januar, Donnerstag

    Zeit Temperatur Niederschläge Wind Luftdruck Luftfeuchtigkeit
    00:00 +29°C° 0,6 mm 6 m/S 750 mmHg 85%
    01:00 +29°C° 1 mm 7 m/S 749 mmHg 85%
    02:00 +29°C° 1 mm 7 m/S 749 mmHg 86%
    03:00 +29°C° 1 mm 7 m/S 749 mmHg 86%
    04:00 +29°C° 0,6 mm 7 m/S 749 mmHg 86%
    05:00 +29°C° 0,6 mm 7 m/S 749 mmHg 86%
    06:00 +29°C° 0,6 mm 7 m/S 749 mmHg 85%
    07:00 +29°C° 3,2 mm 7 m/S 749 mmHg 85%
    08:00 +30°C° 3,2 mm 7 m/S 750 mmHg 85%
    09:00 +31°C° 3,2 mm 8 m/S 750 mmHg 85%
    10:00 +31°C° 2,3 mm 8 m/S 750 mmHg 85%
    11:00 +32°C° 2,3 mm 8 m/S 750 mmHg 84%
    12:00 +32°C° 2,3 mm 7 m/S 749 mmHg 84%
    13:00 +32°C° 2,1 mm 8 m/S 749 mmHg 85%
    14:00 +32°C° 2,1 mm 8 m/S 749 mmHg 85%
    15:00 +32°C° 2,1 mm 8 m/S 748 mmHg 85%
    16:00 +31°C° 1,5 mm 8 m/S 748 mmHg 86%
    17:00 +30°C° 1,5 mm 7 m/S 748 mmHg 87%
    18:00 +30°C° 1,5 mm 7 m/S 748 mmHg 87%
    19:00 +30°C° 0,8 mm 7 m/S 749 mmHg 88%
    20:00 +30°C° 0,8 mm 7 m/S 749 mmHg 88%
    21:00 +29°C° 0,8 mm 7 m/S 750 mmHg 89%
    22:00 +29°C° 0,9 mm 7 m/S 750 mmHg 89%
    23:00 +29°C° 0,9 mm 7 m/S 750 mmHg 89%

    übermorgen, 26 Januar, Freitag

    Zeit Temperatur Niederschläge Wind Luftdruck Luftfeuchtigkeit
    00:00 +29°C° 0,9 mm 7 m/S 750 mmHg 89%
    01:00 +29°C° 1,3 mm 7 m/S 749 mmHg 89%
    02:00 +29°C° 1,3 mm 7 m/S 749 mmHg 89%
    03:00 +29°C° 1,3 mm 8 m/S 749 mmHg 89%
    04:00 +29°C° 2 mm 8 m/S 749 mmHg 89%
    05:00 +29°C° 2 mm 8 m/S 749 mmHg 90%
    06:00 +29°C° 2 mm 8 m/S 749 mmHg 90%
    07:00 +29°C° 2,7 mm 8 m/S 750 mmHg 89%
    08:00 +29°C° 2,7 mm 8 m/S 750 mmHg 89%
    09:00 +29°C° 2,7 mm 9 m/S 751 mmHg 88%
    10:00 +29°C° 5,2 mm 9 m/S 750 mmHg 89%
    11:00 +29°C° 5,2 mm 9 m/S 750 mmHg 89%
    12:00 +28°C° 5,2 mm 9 m/S 750 mmHg 90%
    13:00 +29°C° 3,2 mm 9 m/S 750 mmHg 89%
    14:00 +29°C° 3,2 mm 9 m/S 749 mmHg 88%
    15:00 +29°C° 3,2 mm 9 m/S 749 mmHg 88%
    16:00 +29°C° 2,4 mm 9 m/S 749 mmHg 88%
    17:00 +29°C° 2,4 mm 9 m/S 749 mmHg 88%
    18:00 +29°C° 2,4 mm 9 m/S 749 mmHg 88%
    19:00 +29°C° 2,6 mm 8 m/S 750 mmHg 89%
    20:00 +28°C° 2,6 mm 8 m/S 750 mmHg 89%
    21:00 +28°C° 2,6 mm 8 m/S 751 mmHg 89%
    22:00 +28°C° 2,2 mm 8 m/S 751 mmHg 90%
    23:00 +28°C° 2,2 mm 8 m/S 751 mmHg 90%

    27 Januar, Samstag

    Zeit Temperatur Niederschläge Wind Luftdruck Luftfeuchtigkeit
    00:00 +28°C° 2,2 mm 8 m/S 751 mmHg 90%
    01:00 +28°C° 1,3 mm 8 m/S 750 mmHg 90%
    02:00 +29°C° 1,3 mm 8 m/S 750 mmHg 89%
    03:00 +29°C° 1,3 mm 8 m/S 749 mmHg 88%
    04:00 +28°C° 2,3 mm 9 m/S 749 mmHg 88%
    05:00 +28°C° 2,3 mm 9 m/S 750 mmHg 88%
    06:00 +28°C° 2,3 mm 9 m/S 750 mmHg 88%
    07:00 +29°C° 1,6 mm 9 m/S 750 mmHg 88%
    08:00 +29°C° 1,6 mm 8 m/S 751 mmHg 87%
    09:00 +29°C° 1,6 mm 8 m/S 751 mmHg 87%
    10:00 +29°C° 2 mm 8 m/S 751 mmHg 88%
    11:00 +29°C° 2 mm 9 m/S 751 mmHg 88%
    12:00 +29°C° 2 mm 9 m/S 751 mmHg 88%
    13:00 +29°C° 1,6 mm 9 m/S 750 mmHg 88%
    14:00 +29°C° 1,6 mm 9 m/S 749 mmHg 88%
    15:00 +29°C° 1,6 mm 9 m/S 749 mmHg 87%
    16:00 +29°C° 2 mm 9 m/S 749 mmHg 88%
    17:00 +29°C° 2 mm 9 m/S 749 mmHg 89%
    18:00 +29°C° 2 mm 9 m/S 749 mmHg 89%
    19:00 +29°C° 2,1 mm 9 m/S 750 mmHg 89%
    20:00 +29°C° 2,1 mm 9 m/S 750 mmHg 90%
    21:00 +28°C° 2,1 mm 9 m/S 751 mmHg 90%
    22:00 +28°C° 1,9 mm 9 m/S 751 mmHg 90%
    23:00 +28°C° 1,9 mm 8 m/S 751 mmHg 90%

    28 Januar, Sonntag

    Zeit Temperatur Niederschläge Wind Luftdruck Luftfeuchtigkeit
    00:00 +28°C° 1,9 mm 8 m/S 751 mmHg 90%
    01:00 +28°C° 1,8 mm 8 m/S 750 mmHg 90%
    02:00 +28°C° 1,8 mm 9 m/S 749 mmHg 90%
    03:00 +28°C° 1,8 mm 9 m/S 749 mmHg 90%
    04:00 +28°C° 1,9 mm 9 m/S 749 mmHg 90%
    05:00 +28°C° 1,9 mm 9 m/S 749 mmHg 90%
    06:00 +28°C° 1,9 mm 9 m/S 749 mmHg 90%
    07:00 +29°C° 1,2 mm 9 m/S 750 mmHg 89%
    08:00 +29°C° 1,2 mm 9 m/S 750 mmHg 88%
    09:00 +29°C° 1,2 mm 9 m/S 751 mmHg 87%
    10:00 +31°C° 0,8 mm 9 m/S 750 mmHg 86%
    11:00 +31°C° 0,8 mm 9 m/S 750 mmHg 85%
    12:00 +31°C° 0,8 mm 9 m/S 750 mmHg 85%
    13:00 +31°C° 0,9 mm 10 m/S 749 mmHg 85%
    14:00 +31°C° 0,9 mm 10 m/S 749 mmHg 85%
    15:00 +31°C° 0,9 mm 10 m/S 748 mmHg 85%
    16:00 +29°C° 0,6 mm 10 m/S 748 mmHg 85%
    17:00 +29°C° 0,6 mm 10 m/S 748 mmHg 86%
    18:00 +29°C° 0,6 mm 9 m/S 748 mmHg 86%
    19:00 +29°C° 0,7 mm 9 m/S 749 mmHg 86%
    20:00 +29°C° 0,7 mm 9 m/S 749 mmHg 86%
    21:00 +29°C° 0,7 mm 9 m/S 750 mmHg 86%
    22:00 +29°C° 0,7 mm 9 m/S 749 mmHg 86%
    23:00 +29°C° 0,7 mm 9 m/S 749 mmHg 86%

    29 Januar, Montag

    Zeit Temperatur Niederschläge Wind Luftdruck Luftfeuchtigkeit
    00:00 +29°C° 0,7 mm 9 m/S 749 mmHg 86%
    01:00 +29°C° 0,9 mm 10 m/S 749 mmHg 86%
    02:00 +29°C° 0,9 mm 10 m/S 748 mmHg 86%
    03:00 +29°C° 0,9 mm 10 m/S 748 mmHg 86%
    04:00 +29°C° 0,6 mm 10 m/S 748 mmHg 86%
    05:00 +29°C° 0,6 mm 10 m/S 748 mmHg 86%
    06:00 +29°C° 0,6 mm 10 m/S 748 mmHg 86%
    07:00 +29°C° 0,6 mm 10 m/S 749 mmHg 85%
    08:00 +29°C° 0,6 mm 10 m/S 749 mmHg 84%
    09:00 +31°C° 0,6 mm 11 m/S 750 mmHg 84%
    10:00 +31°C° 0,5 mm 10 m/S 749 mmHg 83%
    11:00 +31°C° 0,5 mm 10 m/S 749 mmHg 82%
    12:00 +31°C° 0,5 mm 10 m/S 749 mmHg 82%
    13:00 +31°C° 0,5 mm 11 m/S 748 mmHg 81%
    14:00 +32°C° 0,5 mm 11 m/S 747 mmHg 79%
    15:00 +32°C° 0,5 mm 12 m/S 747 mmHg 78%
    16:00 +31°C° 0,9 mm 12 m/S 747 mmHg 80%
    17:00 +31°C° 0,9 mm 12 m/S 747 mmHg 81%
    18:00 +29°C° 0,9 mm 13 m/S 747 mmHg 83%
    19:00 +29°C° 1,2 mm 13 m/S 748 mmHg 83%
    20:00 +29°C° 1,2 mm 13 m/S 749 mmHg 84%
    21:00 +29°C° 1,2 mm 13 m/S 749 mmHg 84%
    22:00 +29°C° 1,3 mm 13 m/S 749 mmHg 84%
    23:00 +29°C° 1,3 mm 12 m/S 750 mmHg 84%
    Mehr zeigen